Location: Newark
(60.6561°N, 46.5772°E)
Time: 22:07:07
(UTC+00:00)

Tiros 1 - Pass Details

Date: 24 October 2019
Orbit: 630 x 664 km, 48.4° (Epoch: 11 November)

Event Time Altitude Azimuth Distance (km) Brightness Sun altitude
Exits shadow 01:53:41 13° 216° (SW) 1,895 9.2 -15.5°
Maximum altitude 01:54:43 14° 203° (SSW) 1,848 9.2 -15.4°
Drops below altitude 10° 01:57:04 10° 173° (S) 2,082 9.8 -15.1°
Sets 02:00:31 0° 148° (SSE) 2,991 11.0 -14.7°
